NOAA 16 DEB, 42355

Orbit data source: Space-Track

NOAA 16 DEB, 42355 is space debris in SSO originally from a launch on Thu, 21 Sep 2000 UTC launched from the Air Force Western Test Range (AFWTR). Debris objects in space refer to the collection of defunct objects orbiting the Earth. Examples of debris include non-operational satellites, rocket bodies, and fragments generated from explosions, collisions, or faulty payload assembly.

Loading next visibility...
Identifier
42355, 2000-055QX
Orbit
SSO
Country
Flag of USUS
Related business
Manufacturer
Unknown
Mission
Spacecraft
Bus & Motor
Unknown
Mass
Unknown
Launch date (UTC)
2000-09-21 (26 years ago)
Launch vehicle
Unknown
Launch site
Air Force Western Test Range (AFWTR)
Object type
Payload
Rocket body
Debris
Shape & HBR
Unknown shape, 0.1 m
Radar Cross Section
Small (<0.1 m²)

Expand to show TLE details & history
Last TLE update: 3 days ago

TLE from 3 days ago
0 NOAA 16 DEB
1 42355U 00055QX  26123.51321000  .00002504  00000-0  12922-2 0  9994
2 42355  98.6831 150.2491 0034482  11.8874 348.3106 14.15644546524284
Epoch: 2026-05-03T12:19Z
TLE epoch observation values (Epoch: 2026-05-03T12:19:01.344Z)
Latitude
-0.00004°
Longitude
104.07782°
Altitude
818.655 km
Speed
7.456 km/s
True Right ascension
10h 00m 59s
True Declination
0° 00' 00"
Sunlit
Object was in daylight at epoch
Visualization orbit readout
Latitude
Unknown
Longitude
Unknown
Altitude
Unknown
Speed
Unknown
Apparent Right ascension
Unknown
Apparent Declination
Unknown
Sunlit
N/A
Visualization observer readout
Local Sidereal Time
02:50:26
Azimuth
Unknown
Elevation
Unknown
Doppler factor
Unknown
Orbital elements
Apogee altitude
862.164 km
Perigee altitude
812.403 km
Semi-major axis
7,215.42 km
Eccentricity
0.00345
Inclination
98.6831°
RAAN
150.2491°
Arg. of periapsis
11.8874°
True anomaly
348.2302°
Mean anomaly
348.3106°
Eccentric anomaly
348.27044°
Mean motion
3.5412 °/min
Orbital period
101.66 mins
BSTAR
0.0012922
Loading maneuver chart data...
Computing Atmospheric mass density...
Loading historical data...
Loading historical data...
Loading historical data...
Loading historical data...
Loading historical data...
Loading historical data...
Loading historical data...

Documentation

Showing up to 5 results
|